Temp
22 22 21 20 19 18 18 19 19 19 19 19 20 19 19 19 19 18 19 19 18 18 19 19 19 20 21 21 21 20 20 19 19 20 21 22 21 20 20 20 20 20 20
22 21 21 20 20 19 19 19 19 19 19 19 19 19 20 20 18 18 18 19 18 18 19 19 19 19 20 20 20 20 20 20 20 20 20 21 21 20 20 20 20 20 20
21 21 20 20 20 20 19 19 19 19 19 19 19 19 20 20 19 19 19 19 19 18 19 19 19 19 19 20 20 20 20 20 20 20 20 20 20 20 20 21 21 21 20
21 20 20 20 21 20 20 20 19 19 18 19 19 19 19 20 20 19 19 19 19 19 19 19 19 19 19 19 20 20 20 19 19 19 20 21 20 20 20 20 21 21 21
20 21 21 20 19 20 19 20 20 19 19 19 19 19 19 19 19 19 19 19 20 19 20 20 19 19 19 19 19 20 20 20 20 20 20 20 20 20 20 21 20 20 20
19 19 20 21 20 19 19 19 19 19 19 19 19 19 19 19 19 18 19 19 20 20 20 19 19 19 19 19 19 20 20 20 20 20 20 20 20 20 20 20 20 19 20
18 19 19 19 19 20 19 19 19 19 19 19 19 19 19 19 19 19 19 19 19 20 19 20 19 19 20 19 20 20 19 19 19 19 20 20 20 20 19 20 19 19 19
18 17 18 18 18 19 19 19 19 19 19 18 18 19 19 19 19 19 19 19 18 19 19 19 19 20 20 20 19 19 19 19 19 19 20 20 20 20 20 19 19 19 19
17 17 17 17 17 18 18 18 18 18 18 19 18 18 18 19 19 19 19 19 19 19 19 19 19 20 20 20 19 19 19 19 19 19 19 19 19 19 19 18 19 19 19
17 17 17 17 17 17 17 17 17 17 18 18 18 18 18 19 19 19 19 19 19 19 19 19 19 19 20 20 20 19 19 20 19 19 19 19 19 19 19 19 18 18 18
16 17 16 16 16 16 16 16 17 17 17 17 17 17 18 18 18 19 19 18 19 19 19 19 19 20 20 20 20 20 19 20 19 19 18 19 19 19 19 18 18 18 18
15 16 16 16 15 16 16 16 16 16 17 17 17 18 18 17 17 17 18 19 19 18 19 20 20 20 20 20 19 19 19 19 19 18 18 18 19 19 19 18 18 18 18
14 14 15 15 15 15 15 15 16 17 16 17 16 17 18 18 15 16 15 16 19 18 19 19 20 20 20 19 19 19 19 19 19 18 18 18 19 19 18 18 17 17 16
14 13 14 14 15 15 15 15 15 17 17 17 17 17 17 17 17 15 16 13 17 17 18 19 19 19 19 19 19 19 19 19 19 19 18 18 18 18 17 17 17 17 16
13 13 13 14 15 15 15 15 16 16 17 17 17 17 17 16 15 14 15 13 15 16 17 18 18 19 19 18 18 19 19 19 19 18 18 18 17 17 17 17 17 16 16
13 13 13 13 14 14 14 15 16 16 16 17 17 17 17 16 15 13 15 17 15 15 16 17 18 19 19 19 19 19 19 18 18 18 17 17 17 17 17 17 16 16 16
12 13 13 13 13 14 14 15 15 16 17 17 17 17 17 18 16 16 16 14 15 14 16 18 17 19 20 19 19 19 18 18 17 17 17 17 16 17 17 16 17 16 16
13 13 13 13 13 14 14 15 15 16 16 17 18 18 17 16 15 13 13 16 15 16 18 16 15 17 19 19 19 18 18 17 16 16 16 16 16 16 16 16 16 16 16
13 14 14 14 14 14 14 14 15 15 16 16 17 17 17 16 15 13 15 16 17 17 19 18 17 15 17 18 18 18 18 17 16 16 16 16 17 17 16 16 16 16 16
13 14 14 14 14 14 14 14 15 15 16 17 17 17 17 16 14 15 17 17 16 18 16 17 19 17 16 18 18 18 18 17 17 17 16 16 16 16 16 16 16 16 16
13 13 14 14 14 14 14 14 14 15 15 16 17 17 17 17 16 16 15 16 17 17 17 18 18 16 17 18 18 18 18 17 17 17 17 17 17 16 16 16 16 16 16
13 14 13 14 14 13 13 14 14 15 15 16 16 16 16 17 17 15 16 16 16 15 15 16 17 17 18 19 18 18 18 18 18 17 17 17 17 16 16 16 16 16 16
12 13 14 14 14 14 15 15 15 15 15 15 17 16 16 16 17 15 15 15 15 15 15 16 16 17 18 19 18 18 18 18 18 18 17 17 16 16 16 16 16 16 16
11 12 13 14 15 14 14 14 14 15 15 15 16 16 15 15 15 15 14 14 15 14 14 15 16 17 17 18 18 18 18 18 18 18 17 17 16 16 15 16 16 15 15
11 11 11 11 11 12 13 14 15 15 15 15 15 14 14 14 14 13 14 14 14 14 14 15 16 16 17 18 18 18 18 18 18 17 17 17 16 16 16 16 16 16 16
8 9 9 10 10 11 12 14 11 12 13 13 12 13 13 12 12 13 13 13 13 13 15 15 15 16 16 16 17 18 18 18 18 18 18 17 17 17 16 16 16 16 16
Height
1518 1519 1522 1525 1528 1531 1533 1534 1536 1540 1543 1543 1545 1548 1552 1549 1551 1553 1555 1556 1557 1558 1559 1560 1562 1561 1561 1562 1563 1563 1563 1560 1561 1559 1561 1563 1564 1566 1568 1569 1570 1570 1571
1516 1517 1518 1521 1525 1527 1529 1531 1532 1533 1537 1540 1543 1546 1544 1545 1547 1550 1552 1553 1554 1556 1556 1558 1559 1559 1557 1558 1561 1561 1560 1558 1560 1560 1561 1560 1561 1562 1564 1566 1566 1566 1566
1517 1516 1516 1517 1519 1522 1525 1528 1528 1529 1530 1531 1534 1537 1540 1539 1543 1545 1547 1549 1550 1552 1553 1555 1556 1556 1554 1554 1556 1558 1559 1558 1557 1559 1560 1560 1560 1562 1562 1563 1564 1564 1563
1514 1516 1515 1516 1516 1516 1518 1521 1524 1525 1526 1527 1527 1530 1533 1536 1538 1540 1541 1544 1546 1547 1548 1550 1552 1552 1552 1551 1552 1554 1556 1556 1555 1556 1556 1557 1559 1559 1561 1560 1561 1560 1560
1511 1511 1512 1513 1513 1514 1515 1516 1518 1520 1521 1523 1524 1525 1527 1530 1532 1534 1537 1540 1541 1542 1543 1545 1546 1546 1548 1547 1547 1549 1550 1551 1552 1552 1552 1552 1553 1554 1555 1556 1557 1557 1556
1507 1507 1507 1508 1509 1510 1507 1504 1511 1513 1515 1517 1518 1520 1521 1523 1525 1529 1532 1533 1534 1535 1537 1539 1540 1541 1541 1542 1542 1544 1545 1545 1547 1548 1548 1548 1550 1551 1551 1551 1551 1552 1553
1505 1504 1503 1502 1502 1504 1504 1505 1507 1507 1509 1508 1510 1512 1514 1516 1518 1520 1524 1526 1528 1529 1531 1533 1534 1535 1535 1536 1537 1539 1540 1541 1541 1542 1541 1542 1544 1546 1546 1547 1547 1548 1547
1502 1500 1499 1498 1496 1496 1496 1496 1497 1499 1499 1500 1501 1503 1506 1507 1511 1513 1517 1520 1523 1524 1525 1527 1528 1529 1530 1531 1532 1532 1533 1535 1535 1535 1535 1537 1538 1540 1540 1540 1540 1541 1541
1498 1496 1495 1493 1491 1490 1489 1488 1488 1488 1490 1492 1494 1494 1496 1497 1501 1505 1509 1513 1515 1517 1519 1520 1521 1521 1523 1526 1527 1527 1528 1528 1530 1531 1531 1531 1533 1533 1534 1534 1534 1535 1534
1492 1491 1489 1488 1486 1484 1482 1482 1481 1481 1481 1484 1482 1484 1485 1488 1492 1496 1499 1502 1504 1508 1511 1513 1514 1515 1517 1519 1520 1521 1521 1521 1523 1524 1524 1525 1526 1527 1528 1528 1528 1527 1528
1486 1484 1482 1481 1479 1478 1476 1475 1473 1472 1472 1472 1473 1478 1479 1481 1485 1490 1492 1493 1494 1497 1500 1503 1504 1508 1509 1510 1512 1513 1514 1517 1517 1517 1518 1518 1519 1520 1521 1521 1521 1521 1521
1479 1477 1475 1472 1471 1470 1468 1468 1466 1464 1462 1465 1466 1469 1468 1469 1474 1485 1486 1484 1487 1488 1489 1492 1495 1498 1501 1502 1503 1505 1508 1510 1510 1510 1510 1511 1512 1513 1514 1515 1516 1515 1516
1469 1467 1465 1463 1461 1460 1459 1458 1457 1456 1455 1458 1463 1466 1463 1462 1442 1469 1474 1479 1480 1480 1481 1483 1486 1489 1491 1494 1496 1498 1500 1502 1502 1502 1502 1503 1505 1507 1507 1508 1509 1509 1510
1459 1457 1456 1454 1451 1451 1450 1449 1448 1448 1447 1449 1451 1454 1450 1444 1443 1453 1465 1469 1469 1470 1472 1474 1476 1479 1482 1483 1486 1488 1491 1493 1494 1494 1495 1497 1499 1498 1499 1501 1503 1504 1504
1450 1448 1447 1445 1443 1442 1442 1441 1440 1440 1440 1439 1440 1440 1441 1442 1437 1443 1455 1460 1457 1458 1461 1463 1467 1470 1472 1475 1478 1480 1482 1484 1484 1486 1488 1490 1491 1491 1493 1495 1497 1498 1499
1441 1439 1437 1437 1434 1433 1434 1433 1432 1432 1432 1432 1432 1429 1426 1425 1425 1430 1440 1439 1446 1448 1452 1453 1455 1461 1463 1465 1469 1472 1474 1476 1477 1478 1480 1482 1484 1485 1487 1488 1491 1492 1494
1433 1431 1430 1428 1426 1425 1425 1425 1424 1425 1424 1424 1425 1425 1423 1421 1423 1426 1427 1430 1434 1442 1449 1447 1449 1455 1458 1459 1461 1463 1464 1467 1470 1471 1472 1475 1478 1480 1482 1483 1485 1487 1489
1426 1424 1422 1420 1418 1416 1416 1417 1417 1417 1417 1417 1418 1418 1418 1420 1420 1420 1423 1427 1429 1432 1436 1439 1442 1447 1448 1450 1454 1456 1457 1459 1462 1464 1466 1469 1472 1474 1476 1478 1481 1483 1485
1419 1416 1414 1412 1411 1409 1408 1409 1409 1408 1409 1410 1409 1410 1411 1411 1414 1416 1415 1414 1415 1417 1422 1426 1429 1435 1441 1442 1447 1451 1451 1452 1454 1457 1459 1462 1466 1469 1472 1474 1477 1479 1481
1412 1410 1407 1405 1403 1402 1400 1400 1402 1402 1403 1404 1404 1406 1405 1405 1409 1411 1410 1412 1413 1407 1411 1411 1425 1428 1434 1434 1441 1445 1445 1445 1447 1450 1452 1457 1460 1463 1466 1469 1472 1474 1476
1405 1402 1400 1397 1395 1393 1392 1392 1394 1396 1397 1398 1399 1400 1400 1398 1396 1400 1406 1407 1406 1408 1409 1408 1414 1421 1428 1430 1433 1435 1436 1437 1440 1444 1447 1451 1455 1457 1460 1463 1466 1470 1472
1400 1397 1394 1391 1388 1386 1385 1386 1388 1390 1391 1393 1395 1396 1395 1394 1394 1396 1399 1400 1401 1403 1406 1405 1407 1412 1418 1421 1423 1424 1427 1429 1433 1436 1440 1445 1448 1451 1454 1457 1460 1463 1467
1396 1392 1388 1385 1381 1379 1377 1378 1379 1381 1385 1386 1385 1384 1387 1390 1390 1390 1393 1395 1394 1394 1398 1399 1402 1406 1409 1411 1415 1417 1420 1422 1426 1430 1434 1438 1441 1444 1447 1450 1453 1457 1459
1396 1391 1386 1381 1377 1375 1374 1372 1373 1375 1376 1377 1378 1380 1382 1386 1386 1387 1386 1387 1390 1389 1389 1392 1394 1397 1400 1403 1407 1411 1415 1419 1421 1424 1428 1431 1434 1437 1440 1443 1446 1449 1453
1396 1391 1386 1381 1376 1374 1370 1369 1365 1366 1368 1369 1370 1373 1376 1377 1379 1381 1381 1381 1383 1382 1381 1382 1384 1390 1393 1399 1402 1404 1409 1412 1415 1419 1422 1425 1428 1430 1433 1436 1439 1442 1446
1401 1395 1390 1385 1381 1378 1373 1369 1367 1366 1366 1345 1356 1371 1373 1374 1374 1375 1377 1377 1380 1377 1378 1379 1381 1383 1386 1392 1395 1400 1403 1406 1408 1411 1414 1417 1420 1422 1425 1427 1430 1434 1439
Wind_Speed
16 15 14 14 17 18 26 23 24 25 23 23 20 31 28 19 18 17 19 15 16 14 11 13 11 12 10 10 8 8 5 2 9 4 1 7 10 8 10 17 16 15 12
15 16 17 16 13 13 29 28 26 25 24 23 23 23 22 21 21 22 23 22 22 20 14 15 17 10 9 10 16 10 7 5 2 5 5 5 5 7 6 10 14 15 14
18 19 20 19 19 18 19 31 27 25 27 27 25 25 27 23 26 25 25 21 22 22 17 16 15 11 10 11 10 13 15 13 8 7 8 7 8 10 11 8 11 7 11
14 22 25 27 24 21 18 18 33 26 27 30 30 30 23 25 27 26 24 22 23 24 19 18 16 12 14 15 10 8 9 14 12 11 12 14 9 10 14 17 14 10 10
13 17 16 17 28 28 26 20 19 25 30 30 32 32 29 25 26 27 30 26 24 22 21 22 20 18 18 16 14 11 10 13 16 16 15 13 13 14 15 17 17 13 14
16 17 18 22 22 22 29 27 23 23 28 31 30 29 33 31 30 28 28 29 25 25 25 22 23 24 24 21 21 13 11 12 15 14 16 18 14 11 8 11 19 12 16
19 19 19 19 24 26 24 26 28 29 30 32 34 33 32 36 34 30 27 25 26 27 24 23 23 23 24 25 19 17 18 18 18 20 22 21 20 18 18 18 17 17 20
22 22 20 21 21 21 26 31 34 36 35 35 37 38 37 36 36 37 32 31 32 31 28 26 24 22 20 22 26 23 24 25 24 21 20 19 20 20 21 21 23 23 23
23 23 23 21 25 25 24 25 32 34 35 36 39 40 41 39 38 37 37 36 37 38 37 32 31 30 26 23 25 29 24 23 20 20 18 17 17 17 17 18 20 21 25
22 26 25 26 26 28 28 27 26 31 34 37 38 42 43 44 39 38 39 38 39 39 38 39 37 36 33 31 30 29 30 28 25 24 23 21 21 21 22 20 20 25 26
25 28 29 28 27 32 34 28 28 27 32 32 33 36 39 42 43 39 36 39 39 42 43 43 43 40 36 32 32 33 34 28 27 26 26 24 22 22 20 19 19 19 21
29 30 35 35 31 30 33 33 26 28 28 32 32 36 39 34 29 35 38 39 40 43 46 46 44 37 30 28 28 29 30 28 29 29 28 28 26 24 21 21 21 20 18
30 32 32 28 35 33 30 32 29 28 31 28 23 18 37 44 55 41 34 39 41 42 43 43 40 36 28 26 28 28 26 26 26 30 31 30 27 23 20 22 21 21 20
29 32 33 32 34 34 31 29 32 31 30 30 33 34 27 31 51 68 50 38 44 43 41 42 39 34 30 29 32 32 29 29 28 26 26 24 22 21 22 23 22 22 21
34 31 32 31 32 33 31 27 29 30 27 30 31 31 32 25 38 48 46 43 23 24 30 38 42 40 36 37 34 34 33 31 31 29 27 26 23 21 22 22 22 21 21
30 29 29 29 30 32 28 28 29 30 30 31 27 28 26 27 19 34 48 34 36 24 35 35 39 45 42 40 38 38 37 35 32 29 28 27 26 25 23 22 21 20 19
27 26 27 27 29 32 32 33 28 24 30 31 27 28 26 24 24 31 40 42 43 47 33 28 33 43 41 42 41 39 38 34 27 26 24 23 26 26 24 25 21 18 20
24 23 24 25 27 30 33 32 32 29 27 27 29 27 26 29 25 30 33 36 34 37 26 20 21 37 41 41 39 35 31 26 23 23 26 25 24 23 25 24 23 21 20
21 21 23 24 26 27 29 29 29 31 34 24 22 23 27 26 18 20 24 29 35 41 42 42 18 28 34 32 31 28 25 26 27 25 23 27 24 23 25 25 23 22 18
21 23 20 23 27 27 27 29 30 26 28 30 30 25 19 19 32 31 19 14 18 21 25 22 37 36 40 34 33 26 25 23 23 22 23 27 24 25 25 25 24 22 22
24 26 26 17 20 22 25 28 30 28 24 29 26 25 22 13 15 26 38 34 26 23 26 35 46 47 40 37 32 30 28 28 26 25 20 25 26 25 25 24 23 22 23
24 23 25 23 24 22 23 29 30 28 25 27 17 17 21 21 21 25 25 24 23 34 40 38 40 38 40 37 35 32 33 32 29 30 27 25 28 23 26 26 25 22 22
18 19 17 20 21 21 21 20 23 24 20 21 23 19 20 23 21 24 25 20 19 19 33 29 33 31 32 33 36 32 32 31 30 31 29 28 27 27 29 29 27 27 23
19 20 21 21 17 12 19 20 24 26 26 26 20 18 18 18 18 17 18 17 18 19 15 33 34 26 28 26 29 33 29 28 28 27 27 27 25 26 28 27 25 25 27
20 20 24 24 18 9 13 23 19 19 20 17 15 8 5 2 5 12 16 20 20 22 23 23 29 31 22 29 27 32 31 25 28 29 28 25 23 23 30 28 24 23 22
34 31 28 27 26 22 16 14 27 16 13 20 13 7 6 4 2 1 5 4 10 6 14 19 22 28 28 20 23 32 32 30 31 32 28 27 27 27 28 29 27 25 26
Wind_Direction
248 250 244 248 233 225 210 212 224 234 233 242 237 220 212 230 223 236 250 245 246 253 247 236 252 224 235 231 240 223 235 282 252 237 201 167 200 215 229 245 251 261 268
256 252 253 252 250 237 214 217 219 230 235 238 240 238 239 225 221 232 243 246 240 246 253 243 240 239 233 232 232 237 255 260 254 256 245 234 208 225 271 262 259 267 265
257 255 248 254 256 250 232 219 226 229 241 240 244 252 247 238 228 234 237 241 240 241 239 241 244 239 244 253 247 245 250 253 251 225 236 246 253 238 237 266 255 255 258
244 246 249 251 257 253 249 239 225 230 236 245 255 252 247 236 238 239 242 247 241 235 241 249 241 240 247 256 256 254 244 236 242 235 228 218 251 265 256 255 253 257 257
280 256 263 264 250 256 247 245 239 234 241 239 246 247 246 247 242 247 246 247 237 236 239 245 241 235 244 258 257 250 250 239 246 247 239 233 258 268 267 251 248 263 261
324 303 277 259 263 255 248 246 243 243 246 248 248 246 240 241 241 244 247 245 243 242 242 238 242 240 238 240 250 255 257 258 253 252 245 236 242 244 262 246 240 254 261
310 310 312 296 275 263 256 246 245 244 245 245 249 247 246 243 245 246 248 247 246 248 244 244 242 245 242 240 247 252 257 260 264 255 249 249 253 253 263 261 260 262 262
302 301 307 308 300 287 269 258 256 250 244 241 242 245 249 250 245 243 241 243 246 248 247 251 246 248 252 248 242 250 249 251 253 256 253 258 260 260 263 266 268 264 261
307 306 292 295 295 294 292 278 263 256 251 245 241 243 244 248 247 243 241 241 245 247 246 249 251 256 260 254 248 247 253 251 253 253 251 258 252 248 252 260 266 270 274
297 308 300 287 283 289 289 291 291 268 260 251 246 244 246 249 250 248 244 241 241 243 245 246 250 256 261 261 251 247 249 255 260 261 262 263 262 263 267 265 266 269 268
287 292 290 288 289 280 283 290 292 284 262 256 249 252 252 250 253 255 249 245 240 243 245 249 253 257 260 255 250 247 249 258 260 263 262 258 256 260 264 259 262 264 266
285 283 288 280 281 286 278 279 284 284 286 259 263 260 255 245 251 256 259 251 246 242 245 250 254 258 255 249 243 246 249 252 255 255 254 253 254 256 262 261 258 262 269
288 288 292 283 276 278 281 272 273 274 275 275 260 260 274 265 267 286 301 268 253 247 245 248 252 255 252 241 242 241 240 250 255 255 257 253 251 258 259 253 254 265 268
293 287 284 284 280 279 280 269 266 268 268 271 270 272 288 277 239 259 282 292 250 243 242 248 248 247 240 244 239 236 241 252 258 261 254 254 256 246 237 247 253 261 253
295 290 284 281 276 275 279 275 266 268 273 280 276 274 264 274 240 229 247 266 245 248 247 240 245 242 236 238 236 240 248 254 257 253 248 250 241 234 238 245 251 237 245
291 291 282 282 280 274 275 278 273 275 279 275 280 277 268 269 266 241 252 260 253 267 289 253 244 242 237 237 242 248 254 258 255 249 251 243 230 235 240 239 227 238 239
297 286 284 285 277 271 272 267 274 277 278 270 273 270 260 258 261 248 259 267 259 266 275 246 252 246 246 244 245 249 254 255 251 243 238 228 231 237 236 223 225 236 238
296 290 285 286 281 276 268 269 264 273 282 269 269 270 265 253 260 251 243 255 255 244 267 236 271 251 247 250 249 249 255 247 241 244 232 226 228 226 221 218 229 243 238
302 297 297 293 286 281 274 271 265 268 264 279 274 276 268 250 238 239 235 240 248 228 228 241 269 244 247 246 243 244 242 241 237 238 234 217 223 225 223 228 242 243 240
300 310 316 298 290 280 266 262 258 267 269 270 273 276 268 270 231 234 234 221 217 206 206 206 199 235 243 242 238 238 234 231 233 237 236 220 222 225 231 237 236 236 242
306 309 309 289 296 282 268 259 258 261 274 265 269 266 249 259 259 255 240 238 242 225 198 196 219 230 242 233 235 236 237 233 231 227 225 217 224 233 228 230 231 235 237
304 310 306 293 303 289 263 273 260 255 260 271 260 258 267 255 254 263 269 261 261 248 240 240 235 238 236 232 230 235 233 229 234 230 229 225 226 229 221 223 225 230 233
327 315 306 303 305 313 298 281 269 262 260 261 257 248 259 256 254 253 255 263 272 257 236 227 229 233 231 231 229 233 233 231 234 229 235 222 225 225 219 221 225 226 228
358 349 344 335 328 307 318 294 284 270 261 253 245 244 250 251 242 252 242 257 258 253 258 231 224 225 227 231 232 228 231 234 229 231 224 225 230 223 217 222 227 232 231
27 24 25 24 25 26 315 319 292 273 270 255 237 211 174 208 232 240 249 255 254 260 251 251 228 222 228 232 230 230 224 221 222 220 225 231 223 222 217 222 227 228 224
45 43 42 41 38 41 49 22 8 32 65 85 94 97 83 76 78 331 329 304 254 259 245 228 232 224 217 225 225 223 221 229 231 229 232 225 219 219 218 218 222 230 228